Creek Data

    Home     View Charts     View Raw Data     Messages

ID Distance Battery Voltage Battery Current Internal Temp Internal Humidity External Temp Solar Input rssi snr Time Stamp Record
67081 12.2 3.77 0 44 49 46 5.1 -74 8 02/23/2026 07:45 AM 49913
67080 12.2 3.85 5 42 50 44 4.5 -74 9 02/23/2026 07:30 AM 49912
67079 12.2 3.86 7 41 50 44 4.5 -75 9 02/23/2026 07:15 AM 49911
67078 12.2 3.58 -5 41 51 43 4.5 -75 8 02/23/2026 07:00 AM 49910
67077 12.2 3.62 -6 41 51 43 1.5 -75 9 02/23/2026 06:45 AM 49909
67076 12.2 3.60 -5 41 51 43 0.5 -74 8 02/23/2026 06:30 AM 49908
67075 12.2 3.60 -5 41 51 43 0 -75 9 02/23/2026 06:15 AM 49907
67074 12.2 3.57 -5 41 51 43 0.1 -74 8 02/23/2026 06:00 AM 49906
67073 12.2 3.78 -5 41 51 42 0 -74 9 02/23/2026 05:45 AM 49905
67072 12.1 3.57 -5 41 51 43 0.1 -74 9 02/23/2026 05:30 AM 49904
67071 12.2 3.57 -5 41 51 42 0 -74 8 02/23/2026 05:15 AM 49903
67070 12.1 3.78 -5 41 51 42 0 -74 9 02/23/2026 05:00 AM 49902
67069 12.1 3.60 -5 41 50 42 0 -74 9 02/23/2026 04:45 AM 49901
67068 12.1 3.78 -5 41 51 43 0 -74 9 02/23/2026 04:30 AM 49900
67067 12.1 3.61 -5 41 51 43 0 -74 9 02/23/2026 04:15 AM 49899
67066 12.1 3.78 -5 41 51 42 0 -74 9 02/23/2026 04:00 AM 49898
67065 12.1 3.59 -5 41 51 43 0 -75 9 02/23/2026 03:45 AM 49897
67064 12.1 3.60 -5 40 51 43 0 -75 8 02/23/2026 03:30 AM 49896
67063 12.1 3.59 -5 40 51 42 0 -74 8 02/23/2026 03:15 AM 49895
67062 12.1 3.62 -5 41 51 43 0 -74 9 02/23/2026 03:00 AM 49894
67061 12.1 3.59 -5 41 51 44 0 -74 9 02/23/2026 02:45 AM 49893
67060 12.1 3.60 -5 41 51 42 0 -74 7 02/23/2026 02:30 AM 49892
67059 12.1 3.79 -5 41 51 43 0.1 -73 9 02/23/2026 02:15 AM 49891
67058 12.1 3.60 -5 41 51 43 0 -73 9 02/23/2026 02:00 AM 49890
67057 12.1 3.78 -5 41 51 43 0.1 -75 9 02/23/2026 01:45 AM 49889